Location: ASU Dark Sky Observatory
(36.2504°N, 81.4125°W)
Time: 09:06:44
(UTC-05:00)

Daily predictions for brighter satellites

Satellite Brightness Start Highest point End
(mag) Time Altitude Azimuth Time Altitude Azimuth Time Altitude Azimuth
CZ-2C R/B 3.2 17:33:15 10° S 17:38:06 60° W 17:43:09 10° NNW
COSMOS 2406 3.2 17:33:34 10° NNW 17:39:21 83° ENE 17:45:02 10° SSE
Cosmos 1862 Rocket 3.6 17:36:59 10° S 17:41:22 74° E 17:45:49 10° N
Cosmos 1814 Rocket 4.4 17:36:35 10° N 17:41:40 43° ENE 17:46:45 10° SE
CZ-4C R/B 4.4 17:42:59 10° N 17:46:15 13° NE 17:49:41 10° ENE
SL-27 R/B 4.0 17:46:50 10° NNE 17:48:46 14° ENE 17:50:42 10° E
Cosmos 1461 4.1 17:45:05 10° NW 17:49:41 54° WSW 17:54:18 10° SSE
CSL-04 Debris 4.1 17:45:40 10° SSE 17:51:05 78° ENE 17:56:30 10° N
Ariane Rocket 3.0 17:48:03 10° SSE 17:53:08 80° ENE 17:58:14 10° N
COSMOS 2455 3.4 17:51:20 10° SW 17:57:15 60° WNW 18:03:13 10° NNE
Cosmos 1816 Rocket 4.5 17:52:04 10° N 17:58:13 85° E 18:04:23 10° S
USA 234 3.5 17:53:10 10° NE 17:59:36 57° SE 18:05:59 10° SSW
Okean 1-7 3.9 17:56:52 10° SSE 18:00:34 28° E 18:04:19 10° NNE
Cosmos 2297 4.4 17:56:00 10° SSE 18:01:02 33° ESE 18:06:06 10° NE
Meteor 1-26 Rocket 4.3 17:56:03 10° S 18:01:40 86° W 18:07:13 10° N
Cosmos 1833 Rocket 3.7 17:58:47 10° N 18:03:14 23° ENE 18:07:39 10° ESE
Cosmos 841 Rocket 3.8 17:59:25 10° N 18:04:29 46° ENE 18:09:31 10° SE
Cosmos 1633 3.5 18:02:41 10° NNE 18:05:48 26° ENE 18:08:55 10° SE
CZ-4 R/B 1.2 18:02:27 10° SSE 18:06:20 74° ENE 18:10:11 10° N
Cosmos 2278 Rocket 2.3 18:01:03 10° SSW 18:06:44 84° WNW 18:12:27 10° NNE
MTI 3.9 18:04:15 10° NNE 18:07:24 51° E 18:10:32 10° S
Cosmos 1486 Rocket 3.9 18:02:59 10° SSW 18:08:11 82° ESE 18:13:26 10° NNE
Cosmos 1782 Rocket 4.1 18:11:37 10° NNE 18:15:36 35° ENE 18:19:35 10° SE
GPS 2-05 Rocket1 4.4 18:13:10 10° SSW 18:15:39 21° SSE 18:17:13 15° ESE
CORIOLIS 4.3 18:10:31 10° SSE 18:15:57 82° WSW 18:21:26 10° NNW
YAOGAN 1 2.5 18:14:34 10° SSE 18:18:52 71° ENE 18:23:10 10° N
COSMO-SKYMED 1 2.5 18:16:20 10° NNE 18:20:39 62° E 18:24:56 10° S
OAO 3 Copernicus 4.4 18:16:47 10° W 18:21:53 78° S 18:25:29 19° E
SPOT 3 Rocket 3.8 18:18:32 10° SE 18:23:28 45° ENE 18:28:24 10° N
Cosmos 304 Rocket 3.8 18:19:15 10° NNW 18:24:04 86° WSW 18:28:51 10° SSE
Cosmos 1484 Rocket 4.2 18:20:37 10° S 18:24:13 41° W 18:27:56 10° NNW
Cosmos 1354 Rocket 4.1 18:19:26 10° S 18:24:36 56° ESE 18:29:46 10° NNE
Meteor 1-28 Rocket 4.3 18:21:24 10° N 18:24:57 44° WNW 18:28:29 10° SSW
USA 116 4.4 18:20:35 10° N 18:24:57 59° WNW 18:28:47 10° SSW
Cosmos 1441 Rocket 4.3 18:23:18 10° SSE 18:26:30 24° E 18:26:30 24° E
CZ-2C R/B 4.3 18:22:10 10° N 18:26:35 57° WNW 18:31:02 10° SSW
BREEZE-M DEB (TANK) 2.7 18:24:44 10° WSW 18:26:43 40° NNW 18:27:47 24° NNE
Cosmos 1606 2.5 18:23:25 10° S 18:27:12 77° E 18:30:59 10° N
MONITOR-E 4.3 18:24:38 10° SSE 18:27:33 48° ENE 18:30:31 10° N
Cosmos 2034 Rocket 4.4 18:21:44 10° SSE 18:27:35 40° E 18:33:26 10° NNE
Cosmos 2221 Rocket 3.6 18:26:55 10° S 18:31:14 58° E 18:35:34 10° NNE
EO 1 Del DPAF 3.2 18:31:29 10° NNE 18:35:19 86° WNW 18:39:08 10° SSW
NOAA 12 4.1 18:33:20 10° SSE 18:38:30 55° ENE 18:43:41 10° N
Meteor 2-6 Rocket 4.0 18:33:53 10° S 18:39:14 68° E 18:44:44 10° NNE
CENTAUR R/B 4.5 18:35:44 10° W 18:40:28 22° NW 18:45:40 10° N
Cosmos 1703 Rocket 4.0 18:36:23 10° SSW 18:40:48 64° W 18:45:15 10° N
Cosmos 1782 3.1 18:39:40 10° SSW 18:43:40 67° W 18:47:40 10° N
ERBS 3.3 18:40:43 10° NW 18:44:00 46° SW 18:47:17 10° SSE
OPS 6431 4.4 18:41:14 10° NNW 18:44:30 77° ENE 18:44:56 60° SE
Cosmos 44 4.3 18:41:58 10° N 18:45:15 27° NE 18:45:15 27° NE
Cosmos 2082 Rocket 2.2 18:43:51 10° NNW 18:49:26 55° ENE 18:54:57 10° SE
ALOS 2.1 18:48:47 10° SSE 18:53:26 78° ENE 18:58:07 10° N
Okean 2 Rocket 3.0 18:50:14 10° N 18:54:44 64° E 18:59:12 10° SSE
Cosmos 1464 Rocket 4.0 18:50:16 10° S 18:56:22 84° W 19:02:32 10° N
FengYun 1-2 T 4.5 18:52:25 10° SE 18:57:35 43° ENE 19:02:47 10° N
Cosmos 405 Rocket 2.5 18:54:28 10° S 18:58:17 85° E 18:58:57 59° NNE
Thor Agena Rocket 3.6 18:59:06 45° ENE 18:59:50 49° E 19:04:47 10° S
BREEZE-M DEB (TANK) 3.8 18:54:36 10° WNW 19:00:24 40° SW 19:02:15 21° SSE
ERS-2 3.8 19:00:04 10° SSW 19:03:26 34° W 19:06:49 10° NNW
Meteor 1-27 Rocket 3.7 19:00:09 10° S 19:05:59 74° E 19:11:10 14° NNE
Celestis-02/Orion 38 4.5 19:22:21 58° NNE 19:23:24 84° WNW 19:28:37 10° SSW
BREEZE-M R/B 3.2 19:20:07 10° NW 19:22:52 65° WNW 19:22:52 65° WNW
CZ-4C R/B 3.1 19:29:19 10° NNW 19:35:39 51° NE 19:35:39 51° NE
Meteor 2-20 Rocket 4.3 19:30:29 10° N 19:36:36 90° ENE 19:42:40 10° S
Cosmos 968 Rocket 3.6 19:32:23 10° SSW 19:37:11 71° WSW 19:37:11 71° WSW
USA 234 4.2 19:39:51 29° N 19:42:23 40° NW 19:48:22 10° W
Cosmos 2369 Rocket 4.4 19:38:42 10° S 19:39:08 12° S 19:39:08 12° S
Meteor 1-11 Rocket 4.2 19:41:28 10° NNW 19:47:13 60° W 19:52:49 10° S
Cosmos 1833 Rocket 3.7 19:42:00 10° NW 19:47:19 44° WSW 19:52:37 10° S
